Location: Bruderhein
(53.8035°N, 112.9265°W)
Time: 08:05:59
(UTC+00:00)

TIGRISAT - Pass Details

Date: 08 April 2023
Orbit: 599 x 682 km, 97.7° (Epoch: 03 June)

Event Time Altitude Azimuth Distance (km) Brightness Sun altitude
Rises 10:49:28 0° 125° (SE) 2,988 ? -16.5°
Reaches altitude 10° 10:52:00 10° 111° (ESE) 2,093 ? -16.2°
Maximum altitude 10:55:37 24° 59° (ENE) 1,408 ? -15.8°
Drops below altitude 10° 10:59:18 10° 7° (N) 2,132 ? -15.3°
Sets 11:01:54 0° 353° (N) 3,059 ? -15.0°
